Fort Lewis, WA
on Sunday, November 18, 2012

Sunday
Previous Day Next Day
Daily Summary
 ActualAverage (KOLM)Record (KOLM)
Temperature
Mean Temperature °F 43°F  
Max Temperature 50°F 49°F 61°F (1968)
Min Temperature 41°F 36°F 20°F (1994)
Degree Days
Heating Degree Days 20 22  
Month to date heating degree days 366  
Since 1 July heating degree days 1160  
Cooling Degree Days 0 0  
Month to date cooling degree days 0  
Year to date cooling degree days 106  
Moisture
Dew Point 42°F   
Average Humidity 85    
Maximum Humidity 93    
Minimum Humidity 68    
Precipitation
Precipitation 0.20 in 0.31 in 2.02 in (1958)
Month to date precipitation 4.99  
Year to date precipitation 38.90  
Wind
Wind Speed 11 mph   
Max Wind Speed 21 mph   
Max Gust Speed 31 mph   
Visibility 10 miles   
Events Rain   

Key: T is trace of precipitation, MM is missing value
Source: NWS Daily Summary
Time(PST)TemperatureDew PointHumidity Pressure Visibility Wind DirectionWind SpeedGust SpeedPrecipitationEvents Conditions
12:55 AM 41.0°F 39.2°F 93% 29.72 in 10.0 miles South 15.0 mph - N/A   Light Drizzle
1:20 AM 42.8°F 39.2°F 87% 29.72 in - SSE 10.4 mph - N/A   Scattered Clouds
1:55 AM 41.0°F 39.2°F 93% 29.73 in 10.0 miles SE 8.1 mph - N/A   Mostly Cloudy
2:50 AM 42.8°F 39.2°F 87% 29.73 in 10.0 miles SE 10.4 mph - N/A   Light Drizzle
2:55 AM 42.8°F 39.2°F 87% 29.74 in 10.0 miles SSE 9.2 mph - N/A   Mostly Cloudy
3:34 AM 42.8°F 41.0°F 93% 29.75 in 10.0 miles SE 5.8 mph - N/A   Light Drizzle
3:54 AM 42.8°F 41.0°F 93% 29.75 in 10.0 miles SE 5.8 mph - N/A   Overcast
3:58 AM 42.8°F 40.6°F 92% 29.75 in 10.0 miles SE 5.8 mph - 0.02 in   Overcast
4:16 AM 42.8°F 41.0°F 93% 29.75 in 10.0 miles SE 8.1 mph - N/A   Light Drizzle
4:29 AM 42.8°F 41.0°F 93% 29.75 in 10.0 miles SSE 10.4 mph - N/A   Mostly Cloudy
4:58 AM 43.2°F 40.6°F 91% 29.75 in 10.0 miles SSE 13.8 mph - 0.00 in   Mostly Cloudy
5:58 AM 42.8°F 40.3°F 91% 29.74 in 10.0 miles SE 8.1 mph - 0.01 in   Scattered Clouds
7:58 AM 43.0°F 41.0°F 93% 29.73 in 10.0 miles South 6.9 mph - N/A   Partly Cloudy
8:55 AM 45.5°F 41.4°F 85% 29.75 in 10.0 miles SSE 10.4 mph - 0.01 in   Mostly Cloudy
9:55 AM 46.6°F 42.1°F 84% 29.75 in 10.0 miles SSE 10.4 mph - 0.01 in   Scattered Clouds
10:55 AM 47.5°F 41.0°F 78% 29.76 in 10.0 miles SE 10.4 mph - N/A   Overcast
11:55 AM 48.2°F 41.0°F 76% 29.71 in 10.0 miles East 5.8 mph - N/A   Mostly Cloudy
12:55 PM 50.2°F 40.8°F 70% 29.70 in 10.0 miles SSE 15.0 mph - N/A   Overcast
1:13 PM 50.0°F 41.0°F 71% 29.68 in 10.0 miles SSE 16.1 mph 31.1 mph N/A   Overcast
1:55 PM 50.2°F 40.1°F 68% 29.68 in 10.0 miles ESE 11.5 mph - N/A   Scattered Clouds
2:55 PM 48.7°F 41.7°F 77% 29.65 in 10.0 miles SSE 9.2 mph - N/A   Mostly Cloudy
4:55 PM 47.7°F 40.5°F 76% 29.57 in 10.0 miles ESE 9.2 mph - N/A   Mostly Cloudy
5:55 PM 47.8°F 41.5°F 79% 29.53 in 9.0 miles ESE 15.0 mph 26.5 mph 0.03 in Rain Light Rain
6:17 PM 46.4°F 42.8°F 87% 29.51 in 10.0 miles SE 11.5 mph - N/A   Light Drizzle
6:23 PM 46.4°F 42.8°F 87% 29.51 in 10.0 miles SE 12.7 mph - N/A   Light Drizzle
6:34 PM 46.4°F 42.8°F 87% 29.51 in 10.0 miles SE 12.7 mph 20.7 mph N/A   Mostly Cloudy
6:55 PM 48.2°F 41.0°F 76% 29.52 in 10.0 miles SSE 12.7 mph - N/A   Mostly Cloudy
7:58 PM 49.1°F 41.5°F 75% 29.55 in 10.0 miles SE 20.7 mph 25.3 mph N/A   Overcast
8:19 PM 50.0°F 41.0°F 71% 29.55 in 10.0 miles SE 20.7 mph 26.5 mph N/A Rain Light Rain
8:35 PM 48.2°F 42.8°F 82% 29.56 in 10.0 miles SSE 12.7 mph 24.2 mph N/A   Overcast
8:38 PM 48.2°F 42.8°F 82% 29.56 in 10.0 miles SSE 11.5 mph - N/A   Light Drizzle
8:58 PM 47.8°F 43.9°F 86% 29.59 in 10.0 miles SE 11.5 mph - 0.03 in   Light Drizzle
9:13 PM 48.2°F 44.6°F 87% 29.57 in 10.0 miles ESE 10.4 mph - N/A   Overcast
9:33 PM 48.2°F 44.6°F 87% 29.58 in 10.0 miles ESE 13.8 mph - N/A   Light Drizzle
9:58 PM 47.8°F 44.2°F 87% 29.60 in 10.0 miles SE 12.7 mph - 0.03 in   Light Drizzle
9:59 PM 48.2°F 44.6°F 87% 29.58 in 10.0 miles SE 12.7 mph - N/A   Overcast
10:01 PM 48.2°F 44.6°F 87% 29.57 in 10.0 miles ESE 15.0 mph - N/A   Light Drizzle
10:02 PM 48.2°F 44.6°F 87% 29.57 in 10.0 miles ESE 13.8 mph - N/A   Overcast
10:03 PM 48.2°F 44.6°F 87% 29.57 in 10.0 miles ESE 12.7 mph - N/A   Light Drizzle
10:35 PM 48.2°F 44.6°F 87% 29.57 in 10.0 miles SE 15.0 mph - N/A   Overcast
10:38 PM 48.2°F 44.6°F 87% 29.57 in 10.0 miles ESE 11.5 mph - N/A   Light Drizzle
10:48 PM 48.2°F 44.6°F 87% 29.57 in 9.0 miles ESE 12.7 mph 19.6 mph N/A Rain Light Rain
10:58 PM 47.3°F 44.2°F 89% 29.59 in 8.0 miles ESE 12.7 mph - 0.06 in Rain Light Rain
11:08 PM 48.2°F 44.6°F 87% 29.57 in 10.0 miles ESE 10.4 mph - N/A Rain Light Rain
11:15 PM 48.2°F 44.6°F 87% 29.57 in 10.0 miles ESE 12.7 mph - N/A   Overcast
11:25 PM 48.2°F 44.6°F 87% 29.57 in 10.0 miles ESE 15.0 mph - N/A   Light Drizzle
11:36 PM 48.2°F 44.6°F 87% 29.56 in 10.0 miles ESE 12.7 mph 23.0 mph N/A   Overcast
11:58 PM 47.7°F 43.5°F 86% 29.57 in 10.0 miles ESE 10.4 mph - N/A   Overcast
Moon Phase
Nov. 18 Nov. 20 Nov. 28 Dec. 06 Dec. 13
Sunrise:07:19 AM (PST) Moon Rise:11:45 AM (PST)11/18
Sunset:04:31 PM (PST) Moon Set:10:03 PM (PST)11/18

Copyright © 2014 The Weather Underground, Inc.